• In Austria
  • List of Countries
  • For 7 days
  • Water Temperature
  • Satellite Maps
  • Weather Map
  • News
  • Weather Widgets
  • user-avatar
    Login

    Hourly Weather San Miguel de Tucumán

    Today, 19 July, Thursday

    Time Temperature Precipitation Wind Pressure Humidity
    00:00 +14°C° 0 mm 2 mps 716 mmHg 90%
    01:00 +14°C° 0 mm 2 mps 716 mmHg 90%
    02:00 +14°C° 0 mm 2 mps 717 mmHg 90%
    03:00 +14°C° 0 mm 2 mps 716 mmHg 90%
    04:00 +14°C° 0 mm 2 mps 716 mmHg 90%
    05:00 +13°C° 0 mm 2 mps 716 mmHg 90%
    06:00 +13°C° 0.1 mm 2 mps 717 mmHg 89%
    07:00 +13°C° 0.1 mm 2 mps 717 mmHg 89%
    08:00 +12°C° 0.1 mm 2 mps 717 mmHg 88%
    09:00 +12°C° 0.1 mm 2 mps 717 mmHg 85%
    10:00 +11°C° 0.1 mm 3 mps 718 mmHg 82%
    11:00 +12°C° 0.1 mm 3 mps 718 mmHg 80%
    12:00 +12°C° 0 mm 3 mps 717 mmHg 78%
    13:00 +13°C° 0 mm 2 mps 717 mmHg 76%
    14:00 +13°C° 0 mm 2 mps 717 mmHg 74%
    15:00 +13°C° 0 mm 2 mps 717 mmHg 74%
    16:00 +12°C° 0 mm 2 mps 717 mmHg 75%
    17:00 +12°C° 0 mm 2 mps 717 mmHg 75%
    18:00 +10°C° 0 mm 2 mps 718 mmHg 78%
    19:00 +9°C° 0 mm 2 mps 719 mmHg 82%
    20:00 +8°C° 0 mm 2 mps 719 mmHg 85%
    21:00 +8°C° 0 mm 2 mps 720 mmHg 85%
    22:00 +7°C° 0 mm 2 mps 720 mmHg 86%
    23:00 +7°C° 0 mm 2 mps 721 mmHg 86%

    Tomorrow, 20 July, Friday

    Time Temperature Precipitation Wind Pressure Humidity
    00:00 +7°C° 0 mm 2 mps 721 mmHg 83%
    01:00 +7°C° 0 mm 2 mps 721 mmHg 79%
    02:00 +7°C° 0 mm 2 mps 722 mmHg 76%
    03:00 +6°C° 0 mm 2 mps 722 mmHg 72%
    04:00 +6°C° 0 mm 2 mps 722 mmHg 67%
    05:00 +6°C° 0 mm 2 mps 722 mmHg 63%
    06:00 +6°C° 0 mm 2 mps 723 mmHg 61%
    07:00 +6°C° 0 mm 2 mps 724 mmHg 59%
    08:00 +6°C° 0 mm 2 mps 725 mmHg 57%
    09:00 +9°C° 0 mm 2 mps 726 mmHg 50%
    10:00 +12°C° 0 mm 2 mps 726 mmHg 44%
    11:00 +14°C° 0 mm 2 mps 727 mmHg 37%
    12:00 +15°C° 0 mm 2 mps 726 mmHg 35%
    13:00 +16°C° 0 mm 2 mps 725 mmHg 33%
    14:00 +17°C° 0 mm 2 mps 725 mmHg 31%
    15:00 +16°C° 0 mm 2 mps 725 mmHg 33%
    16:00 +16°C° 0 mm 2 mps 724 mmHg 35%
    17:00 +15°C° 0 mm 1 mps 724 mmHg 38%
    18:00 +14°C° 0 mm 2 mps 724 mmHg 41%
    19:00 +12°C° 0 mm 2 mps 725 mmHg 44%
    20:00 +10°C° 0 mm 2 mps 725 mmHg 48%
    21:00 +10°C° 0 mm 2 mps 725 mmHg 47%
    22:00 +9°C° 0 mm 2 mps 725 mmHg 47%
    23:00 +9°C° 0 mm 2 mps 726 mmHg 47%

    Day after tomorrow, 21 July, Saturday

    Time Temperature Precipitation Wind Pressure Humidity
    00:00 +9°C° 0 mm 2 mps 725 mmHg 47%
    01:00 +9°C° 0 mm 2 mps 725 mmHg 46%
    02:00 +9°C° 0 mm 2 mps 724 mmHg 46%
    03:00 +9°C° 0 mm 2 mps 724 mmHg 47%
    04:00 +9°C° 0 mm 2 mps 723 mmHg 48%
    05:00 +8°C° 0 mm 2 mps 723 mmHg 49%
    06:00 +9°C° 0 mm 2 mps 723 mmHg 48%
    07:00 +9°C° 0 mm 2 mps 723 mmHg 47%
    08:00 +10°C° 0 mm 2 mps 723 mmHg 46%
    09:00 +14°C° 0 mm 2 mps 723 mmHg 40%
    10:00 +17°C° 0 mm 3 mps 723 mmHg 33%
    11:00 +20°C° 0 mm 4 mps 723 mmHg 27%
    12:00 +21°C° 0 mm 4 mps 722 mmHg 25%
    13:00 +22°C° 0 mm 4 mps 720 mmHg 24%
    14:00 +23°C° 0 mm 5 mps 719 mmHg 22%
    15:00 +22°C° 0 mm 5 mps 719 mmHg 25%
    16:00 +21°C° 0 mm 4 mps 718 mmHg 28%
    17:00 +20°C° 0 mm 4 mps 717 mmHg 31%
    18:00 +19°C° 0 mm 4 mps 717 mmHg 33%
    19:00 +17°C° 0 mm 4 mps 717 mmHg 35%
    20:00 +15°C° 0 mm 4 mps 717 mmHg 36%
    21:00 +14°C° 0 mm 4 mps 717 mmHg 37%
    22:00 +13°C° 0 mm 3 mps 716 mmHg 37%
    23:00 +13°C° 0 mm 3 mps 716 mmHg 38%

    22 July, Sunday

    Time Temperature Precipitation Wind Pressure Humidity
    00:00 +13°C° 0 mm 3 mps 716 mmHg 39%
    01:00 +13°C° 0 mm 2 mps 715 mmHg 40%
    02:00 +13°C° 0 mm 2 mps 715 mmHg 41%
    03:00 +13°C° 0 mm 2 mps 714 mmHg 42%
    04:00 +12°C° 0 mm 2 mps 714 mmHg 43%
    05:00 +12°C° 0 mm 2 mps 713 mmHg 45%
    06:00 +12°C° 0 mm 2 mps 714 mmHg 45%
    07:00 +12°C° 0 mm 1 mps 715 mmHg 45%
    08:00 +13°C° 0 mm 1 mps 715 mmHg 45%
    09:00 +15°C° 0 mm 1 mps 716 mmHg 41%
    10:00 +19°C° 0 mm 1 mps 716 mmHg 36%
    11:00 +22°C° 0 mm 1 mps 716 mmHg 31%
    12:00 +23°C° 0 mm 1 mps 716 mmHg 30%
    13:00 +24°C° 0 mm 2 mps 716 mmHg 28%
    14:00 +25°C° 0 mm 2 mps 716 mmHg 27%
    15:00 +23°C° 0 mm 2 mps 716 mmHg 29%
    16:00 +21°C° 0 mm 2 mps 716 mmHg 32%
    17:00 +20°C° 0 mm 2 mps 717 mmHg 35%
    18:00 +18°C° 0 mm 2 mps 718 mmHg 39%
    19:00 +16°C° 0 mm 1 mps 719 mmHg 43%
    20:00 +14°C° 0 mm 1 mps 720 mmHg 48%
    21:00 +14°C° 0 mm 1 mps 720 mmHg 50%
    22:00 +13°C° 0 mm 2 mps 721 mmHg 52%
    23:00 +12°C° 0 mm 2 mps 722 mmHg 54%

    23 July, Monday

    Time Temperature Precipitation Wind Pressure Humidity
    00:00 +12°C° 0 mm 2 mps 722 mmHg 56%
    01:00 +10°C° 0 mm 2 mps 723 mmHg 58%
    02:00 +10°C° 0 mm 2 mps 723 mmHg 60%
    03:00 +9°C° 0 mm 2 mps 724 mmHg 64%
    04:00 +8°C° 0 mm 2 mps 724 mmHg 67%
    05:00 +7°C° 0 mm 2 mps 725 mmHg 71%
    06:00 +8°C° 0 mm 2 mps 726 mmHg 71%
    07:00 +8°C° 0 mm 2 mps 727 mmHg 71%
    08:00 +8°C° 0 mm 2 mps 728 mmHg 70%
    09:00 +9°C° 0 mm 2 mps 729 mmHg 61%
    10:00 +12°C° 0 mm 2 mps 729 mmHg 52%
    11:00 +13°C° 0 mm 2 mps 730 mmHg 43%
    12:00 +14°C° 0 mm 2 mps 729 mmHg 40%
    13:00 +14°C° 0 mm 2 mps 728 mmHg 38%
    14:00 +15°C° 0 mm 2 mps 728 mmHg 36%
    15:00 +14°C° 0 mm 2 mps 728 mmHg 37%
    16:00 +13°C° 0 mm 2 mps 728 mmHg 38%
    17:00 +13°C° 0 mm 2 mps 728 mmHg 40%
    18:00 +10°C° 0 mm 2 mps 729 mmHg 44%
    19:00 +10°C° 0 mm 1 mps 729 mmHg 47%
    20:00 +9°C° 0 mm 1 mps 730 mmHg 51%
    21:00 +8°C° 0 mm 1 mps 730 mmHg 51%
    22:00 +8°C° 0 mm 1 mps 730 mmHg 50%
    23:00 +8°C° 0 mm 1 mps 731 mmHg 50%

    24 July, Tuesday

    Time Temperature Precipitation Wind Pressure Humidity
    00:00 +7°C° 0 mm 1 mps 730 mmHg 51%
    01:00 +7°C° 0 mm 1 mps 730 mmHg 51%
    02:00 +7°C° 0 mm 1 mps 730 mmHg 52%
    03:00 +6°C° 0 mm 1 mps 729 mmHg 54%
    04:00 +6°C° 0 mm 1 mps 729 mmHg 55%
    05:00 +5°C° 0 mm 1 mps 729 mmHg 57%
    06:00 +6°C° 0 mm 1 mps 729 mmHg 57%
    07:00 +6°C° 0 mm 1 mps 729 mmHg 57%
    08:00 +6°C° 0 mm 1 mps 730 mmHg 56%
    09:00 +8°C° 0 mm 1 mps 730 mmHg 50%
    10:00 +10°C° 0 mm 2 mps 729 mmHg 44%
    11:00 +13°C° 0 mm 2 mps 729 mmHg 37%
    12:00 +14°C° 0 mm 2 mps 728 mmHg 36%
    13:00 +15°C° 0 mm 2 mps 727 mmHg 34%
    14:00 +16°C° 0 mm 2 mps 726 mmHg 32%
    15:00 +15°C° 0 mm 2 mps 726 mmHg 34%
    16:00 +14°C° 0 mm 2 mps 726 mmHg 37%
    17:00 +14°C° 0 mm 2 mps 726 mmHg 39%
    18:00 +12°C° 0 mm 1 mps 726 mmHg 44%
    19:00 +10°C° 0 mm 1 mps 726 mmHg 48%
    20:00 +9°C° 0 mm 1 mps 727 mmHg 53%
    21:00 +8°C° 0 mm 1 mps 727 mmHg 54%
    22:00 +8°C° 0 mm 1 mps 727 mmHg 55%
    23:00 +7°C° 0 mm 1 mps 727 mmHg 56%
    Show more